This demonstration page uses our WeatherBlox Daily Observations layout. Learn more.

Left ArrowRight Arrow

39.01783, -85.05884

Hourly Observations for July 14, 2018

Temp ( °F °C ) Dew Point ( °F °C ) Humidity (%) Winds ( mph kmh ) Pressure ( in mb ) Visibility ( mi km ) Precip ( " mm )
12:52 am 00:52 Clear 71 21.7 62 16.7 73 73 Calm 30.09 1019 9 14 0.00 0.00
1:52 am 01:52 Clear 70 21.1 63 17.2 79 79 Calm 30.07 1018 9 14 0.00 0.00
2:52 am 02:52 Clear 70 21.1 62 16.7 76 76 Calm 30.05 1018 9 14 0.00 0.00
3:52 am 03:52 Clear 72 22.2 62 16.7 71 71 Calm 30.04 1017 8 13 0.00 0.00
4:52 am 04:52 Clear 69 20.6 62 16.7 78 78 NW 3 6 30.05 1018 9 14 0.00 0.00
5:52 am 05:52 Mostly Clear 71 21.7 63 17.2 76 76 Calm 30.05 1018 9 14 0.00 0.00
6:52 am 06:52 Partly Cloudy 70 21.1 63 17.2 79 79 Calm 30.06 1018 7 11 0.00 0.00
7:52 am 07:52 Partly Cloudy 73 22.8 65 18.3 76 76 Calm 30.07 1018 7 11 0.00 0.00
8:52 am 08:52 Partly Cloudy 77 25 65 18.3 66 66 Calm 30.08 1019 8 13 0.00 0.00
9:52 am 09:52 Mostly Sunny 82 27.8 64 17.8 55 55 S 7 11 30.08 1019 10 16 0.00 0.00
10:52 am 10:52 Mostly Sunny 85 29.4 64 17.8 50 50 S 5 7 30.07 1018 10 16 0.00 0.00
11:52 am 11:52 Mostly Sunny 89 31.7 63 17.2 42 42 WNW 7 11 30.04 1017 10 16 0.00 0.00
12:52 pm 12:52 Mostly Sunny 89 31.7 62 16.7 41 41 SW 5 7 30.06 1018 10 16 0.00 0.00
1:52 pm 13:52 Partly Cloudy 90 32.2 61 16.1 38 38 WSW 7 11 30.06 1018 10 16 0.00 0.00
2:52 pm 14:52 Partly Cloudy 92 33.3 61 16.1 36 36 S 6 9 30.02 1017 10 16 0.00 0.00
3:52 pm 15:52 Partly Cloudy 91 32.8 62 16.7 38 38 VRB 5 7 30.04 1017 10 16 0.00 0.00
4:52 pm 16:52 Mostly Sunny 92 33.3 63 17.2 38 38 NW 9 15 30.02 1017 10 16 0.00 0.00
5:52 pm 17:52 Mostly Sunny 91 32.8 63 17.2 39 39 Calm 30.01 1016 10 16 0.00 0.00
6:52 pm 18:52 Mostly Sunny 90 32.2 63 17.2 41 41 SSW 5 7 29.98 1015 10 16 0.00 0.00
7:52 pm 19:52 Mostly Cloudy 86 30 64 17.8 48 48 S 6 9 29.97 1015 10 16 0.00 0.00
9:52 pm 21:52 Cloudy 83 28.3 64 17.8 53 53 Calm 30.01 1016 10 16 0.00 0.00
10:52 pm 22:52 Cloudy 79 26.1 65 18.3 62 62 W 5 7 30.01 1016 10 16 0.00 0.00
11:52 pm 23:52 Cloudy 77 25 66 18.9 69 69 Calm 30.01 1016 10 16 0.00 0.00

Powered by AerisWeather